Home   Weather   Kawasaki   Past weeks

Flag for Japan Past Weather in Kawasaki, Japan — Yesterday and Last 2 Weeks

Now
73 °F

Light rain. Partly sunny.


Feels Like: 70 °F
Forecast: 70 / 81 °F
Wind: 12 mph from North

Location: Tokyo International Airport

Current Time: Aug 17, 2017 at 8:49:11 am

Latest Report: Aug 17, 2017 at 8:20 am


Visibility: N/A

Pressure: 29.80 "Hg

Humidity: 94%

Dew Point: 72 °F

Location of KawasakiLocation

Past Weather in Kawasaki — Graph

°F

Kawasaki Temperature Yesterday

Maximum temperature yesterday: 75 °F (at 2:30 am)
Minimum temperature yesterday: 72 °F (at 11:30 am)
Average temperature yesterday: 73 °F

High & Low Weather Summary for the Past Weeks

 TemperatureHumidityPressure
High95 °F (Aug 9, 12:30 pm)100% (Aug 4, 8:35 pm)29.89 "Hg (Aug 4, 8:35 pm)
Low70 °F (Aug 3, 3:30 am)56% (Aug 8, 2:30 pm)29.15 "Hg (Aug 8, 12:30 pm)
Average79 °F89%29.66 "Hg
* Reported Aug 2 7:00 am — Aug 17 7:30 am, Kawasaki. Weather by CustomWeather, © 2017

Note: Actual official high and low records may vary slightly from our data, if they occured in-between our weather recording intervals... More about our weather records

Advertising

Kawasaki Weather History for the Previous 24 Hours

Scroll right to see more
 ConditionsComfort  
Time TempWeatherWind HumidityBarometerVisibility
7:30 am
Thu, Aug 17
73 °FBroken clouds.10 mph94%29.80 "HgN/A
7:00 am73 °FBroken clouds.13 mph94%29.80 "HgN/A
6:30 am72 °FPartly sunny.13 mph100%29.80 "HgN/A
6:00 am72 °FLight rain. Partly sunny.14 mph100%29.77 "HgN/A
5:30 am72 °FLight rain. Broken clouds.14 mph94%29.77 "HgN/A
5:00 am72 °FLight rain. Broken clouds.16 mph94%29.77 "Hg5 mi
4:30 am72 °FLight rain. Passing clouds.9 mph94%29.77 "HgN/A
4:00 am72 °FLight rain. Passing clouds.12 mph94%29.77 "HgN/A
3:30 am72 °FPassing clouds.9 mph94%29.77 "HgN/A
3:00 am72 °FPassing clouds.12 mph94%29.77 "HgN/A
2:30 am72 °FLight rain. Passing clouds.10 mph94%29.77 "HgN/A
2:00 am72 °FLight rain. Fog.12 mph100%29.77 "Hg4 mi
1:43 am72 °FLight rain. Fog.13 mph100%29.77 "Hg4 mi
1:30 am72 °FLight rain. Partly cloudy.12 mph100%29.77 "HgN/A
1:00 am72 °FLight rain. Partly cloudy.12 mph100%29.77 "HgN/A
12:30 am72 °FLight rain. Partly cloudy.10 mph100%29.77 "Hg5 mi
12:00 am72 °FLight rain. Partly cloudy.12 mph100%29.77 "Hg4 mi
11:30 pm
Wed, Aug 16
72 °FLight rain. Fog.10 mph100%29.77 "Hg3 mi
11:09 pm72 °FLight rain. Fog.9 mph100%29.77 "Hg3 mi
10:30 pm72 °FLight rain. Fog.10 mph100%29.77 "Hg3 mi
10:14 pm72 °FLight rain. Fog.10 mph100%29.77 "Hg3 mi
10:00 pm72 °FLight rain. Fog.12 mph100%29.77 "Hg3 mi
9:41 pm72 °FLight rain. Fog.13 mph100%29.77 "Hg3 mi
9:30 pm73 °FLight rain. Passing clouds.14 mph94%29.77 "HgN/A
9:00 pm72 °FPartly cloudy.12 mph100%29.77 "HgN/A
8:30 pm72 °FPartly cloudy.12 mph100%29.77 "HgN/A
8:00 pm72 °FPartly cloudy.12 mph100%29.77 "Hg6 mi
7:30 pm72 °FSprinkles. Fog.15 mph100%29.74 "Hg4 mi
7:00 pm73 °FSprinkles. Fog.13 mph94%29.74 "Hg3 mi
6:30 pm73 °FSprinkles. Fog.10 mph94%29.74 "Hg5 mi
6:00 pm73 °FLight rain. Broken clouds.12 mph94%29.74 "HgN/A
5:30 pm73 °FLight rain. Partly sunny.13 mph94%29.71 "Hg6 mi
5:00 pm73 °FLight rain. Broken clouds.12 mph94%29.71 "HgN/A
4:30 pm73 °FLight rain. Partly sunny.13 mph94%29.71 "HgN/A
4:00 pm73 °FLight rain. Broken clouds.13 mph94%29.71 "HgN/A
3:30 pm73 °FLight rain. Broken clouds.12 mph100%29.71 "HgN/A
3:00 pm73 °FDrizzle. Broken clouds.12 mph100%29.71 "Hg4 mi
2:30 pm72 °FDrizzle. Fog.10 mph100%29.74 "Hg2 mi
2:00 pm73 °FDrizzle. Fog.12 mph94%29.71 "Hg3 mi
1:30 pm73 °FLight rain. Fog.15 mph94%29.74 "Hg4 mi
1:15 pm73 °FLight rain. Fog.12 mph94%29.74 "Hg3 mi
1:00 pm73 °FLight rain. Partly sunny.13 mph94%29.74 "Hg6 mi
12:30 pm73 °FLight rain. Partly sunny.12 mph94%29.74 "Hg6 mi
12:16 pm72 °FLight rain. Partly sunny.13 mph100%29.74 "Hg4 mi
12:00 pm72 °FRain. Fog.12 mph100%29.74 "Hg3 mi
11:30 am72 °FRain. Fog.13 mph100%29.74 "Hg2 mi
11:07 am73 °FRain. Fog.13 mph94%29.74 "Hg2 mi
11:00 am73 °FLight rain. Fog.13 mph94%29.74 "Hg2 mi
10:30 am73 °FLight rain. Fog.16 mph94%29.74 "Hg3 mi
10:00 am73 °FLight rain. Partly sunny.17 mph94%29.74 "HgN/A
9:30 am73 °FLight rain. Partly sunny.16 mph94%29.74 "HgN/A
9:00 am73 °FPartly sunny.16 mph94%29.74 "HgN/A
8:30 am73 °FLight rain. Partly sunny.16 mph94%29.71 "HgN/A
8:00 am73 °FLight rain. Partly sunny.14 mph94%29.74 "Hg4 mi
Weather by CustomWeather, © 2017

See weather overviewHow to use our weather pages